• Em Portugal
  • Lista de países
  • Para 7 dias
  • Temperatura da água
  • Mapas de satélite
  • Mapa do tempo
  • Widgets de tempo
  • user-avatar
    Iniciar Sessão

    Previsão horária em Berezovec

    Hoje, 23 Outubro, Terça-feira

    Tempo Temperatura Precipitação Vento Pressão Humidade
    00:00 +6°C° 0 mm 2 m/s 741 mmHg 72%
    01:00 +5°C° 0 mm 2 m/s 741 mmHg 73%
    02:00 +4°C° 0 mm 2 m/s 740 mmHg 75%
    03:00 +4°C° 0 mm 2 m/s 739 mmHg 76%
    04:00 +3°C° 0 mm 2 m/s 739 mmHg 76%
    05:00 +3°C° 0 mm 2 m/s 738 mmHg 77%
    06:00 +3°C° 0 mm 3 m/s 738 mmHg 75%
    07:00 +3°C° 0 mm 4 m/s 738 mmHg 73%
    08:00 +3°C° 0 mm 4 m/s 738 mmHg 71%
    09:00 +5°C° 0 mm 5 m/s 737 mmHg 67%
    10:00 +6°C° 0 mm 5 m/s 737 mmHg 63%
    11:00 +7°C° 0 mm 6 m/s 736 mmHg 60%
    12:00 +7°C° 0 mm 6 m/s 736 mmHg 59%
    13:00 +8°C° 0 mm 6 m/s 735 mmHg 59%
    14:00 +8°C° 0 mm 6 m/s 734 mmHg 58%
    15:00 +7°C° 0 mm 5 m/s 734 mmHg 62%
    16:00 +6°C° 0 mm 5 m/s 733 mmHg 66%
    17:00 +6°C° 0 mm 4 m/s 733 mmHg 69%
    18:00 +6°C° 0 mm 4 m/s 732 mmHg 71%
    19:00 +6°C° 0 mm 5 m/s 732 mmHg 72%
    20:00 +6°C° 0 mm 5 m/s 731 mmHg 74%
    21:00 +6°C° 0.1 mm 5 m/s 730 mmHg 75%
    22:00 +6°C° 0.1 mm 5 m/s 729 mmHg 76%
    23:00 +5°C° 0.1 mm 5 m/s 729 mmHg 77%

    Amanhã, 24 Outubro, Quarta-feira

    Tempo Temperatura Precipitação Vento Pressão Humidade
    00:00 +5°C° 0.3 mm 5 m/s 728 mmHg 77%
    01:00 +4°C° 0.3 mm 6 m/s 727 mmHg 78%
    02:00 +4°C° 0.3 mm 6 m/s 726 mmHg 78%
    03:00 +4°C° 0.1 mm 6 m/s 725 mmHg 78%
    04:00 +4°C° 0.1 mm 6 m/s 724 mmHg 78%
    05:00 +4°C° 0.1 mm 6 m/s 723 mmHg 79%
    06:00 +4°C° 0.5 mm 7 m/s 723 mmHg 80%
    07:00 +4°C° 0.5 mm 7 m/s 722 mmHg 81%
    08:00 +4°C° 0.5 mm 7 m/s 721 mmHg 82%
    09:00 +5°C° 0.3 mm 7 m/s 720 mmHg 81%
    10:00 +6°C° 0.3 mm 7 m/s 720 mmHg 80%
    11:00 +6°C° 0.3 mm 7 m/s 719 mmHg 79%
    12:00 +6°C° 0.4 mm 7 m/s 719 mmHg 80%
    13:00 +6°C° 0.4 mm 7 m/s 719 mmHg 80%
    14:00 +6°C° 0.4 mm 7 m/s 718 mmHg 81%
    15:00 +7°C° 0.5 mm 6 m/s 719 mmHg 82%
    16:00 +6°C° 0.5 mm 5 m/s 719 mmHg 82%
    17:00 +6°C° 0.5 mm 5 m/s 719 mmHg 83%
    18:00 +6°C° 0 mm 5 m/s 719 mmHg 84%
    19:00 +5°C° 0 mm 4 m/s 719 mmHg 84%
    20:00 +5°C° 0 mm 4 m/s 719 mmHg 85%
    21:00 +5°C° 0.1 mm 3 m/s 719 mmHg 86%
    22:00 +4°C° 0.1 mm 3 m/s 719 mmHg 88%
    23:00 +4°C° 0.1 mm 3 m/s 719 mmHg 89%

    Depois de amanhã, 25 Outubro, Quinta-feira

    Tempo Temperatura Precipitação Vento Pressão Humidade
    00:00 +4°C° 0 mm 3 m/s 719 mmHg 89%
    01:00 +3°C° 0 mm 3 m/s 719 mmHg 90%
    02:00 +3°C° 0 mm 3 m/s 720 mmHg 90%
    03:00 +2°C° 0 mm 3 m/s 720 mmHg 90%
    04:00 +2°C° 0 mm 3 m/s 720 mmHg 89%
    05:00 +2°C° 0 mm 3 m/s 720 mmHg 89%
    06:00 +1°C° 0 mm 4 m/s 720 mmHg 86%
    07:00 +1°C° 0 mm 5 m/s 720 mmHg 84%
    08:00 +2°C° 0 mm 6 m/s 721 mmHg 81%
    09:00 +2°C° 0 mm 6 m/s 721 mmHg 76%
    10:00 +3°C° 0 mm 7 m/s 721 mmHg 72%
    11:00 +4°C° 0 mm 8 m/s 721 mmHg 67%
    12:00 +4°C° 0.3 mm 7 m/s 721 mmHg 69%
    13:00 +4°C° 0.3 mm 7 m/s 721 mmHg 71%
    14:00 +4°C° 0.3 mm 7 m/s 722 mmHg 74%
    15:00 +3°C° 0.2 mm 6 m/s 722 mmHg 75%
    16:00 +3°C° 0.2 mm 6 m/s 723 mmHg 77%
    17:00 +3°C° 0.2 mm 5 m/s 723 mmHg 79%
    18:00 +2°C° 0.1 mm 5 m/s 724 mmHg 79%
    19:00 +2°C° 0.1 mm 5 m/s 724 mmHg 80%
    20:00 +2°C° 0.1 mm 5 m/s 724 mmHg 80%
    21:00 +2°C° 0.2 mm 5 m/s 725 mmHg 81%
    22:00 +1°C° 0.2 mm 5 m/s 725 mmHg 81%
    23:00 +1°C° 0.2 mm 5 m/s 725 mmHg 81%

    26 Outubro, Sexta-feira

    Tempo Temperatura Precipitação Vento Pressão Humidade
    00:00 +1°C° 0 mm 4 m/s 726 mmHg 83%
    01:00 0°C° 0 mm 4 m/s 726 mmHg 84%
    02:00 0°C° 0 mm 4 m/s 727 mmHg 85%
    03:00 0°C° 0 mm 4 m/s 727 mmHg 84%
    04:00 0°C° 0 mm 4 m/s 727 mmHg 83%
    05:00 +1°C° 0 mm 3 m/s 728 mmHg 82%
    06:00 0°C° 0 mm 4 m/s 728 mmHg 81%
    07:00 0°C° 0 mm 4 m/s 729 mmHg 80%
    08:00 +1°C° 0 mm 4 m/s 729 mmHg 79%
    09:00 +3°C° 0 mm 4 m/s 730 mmHg 74%
    10:00 +4°C° 0 mm 4 m/s 730 mmHg 70%
    11:00 +3°C° 0 mm 5 m/s 730 mmHg 66%
    12:00 +5°C° 0 mm 5 m/s 730 mmHg 64%
    13:00 +5°C° 0 mm 5 m/s 731 mmHg 63%
    14:00 +5°C° 0 mm 5 m/s 731 mmHg 61%
    15:00 +3°C° 0 mm 5 m/s 731 mmHg 66%
    16:00 +4°C° 0 mm 4 m/s 731 mmHg 71%
    17:00 +3°C° 0 mm 4 m/s 732 mmHg 75%
    18:00 +3°C° 0.1 mm 4 m/s 732 mmHg 77%
    19:00 +3°C° 0.1 mm 4 m/s 732 mmHg 79%
    20:00 +3°C° 0.1 mm 4 m/s 733 mmHg 80%
    21:00 +3°C° 0.2 mm 4 m/s 733 mmHg 82%
    22:00 +1°C° 0.2 mm 4 m/s 734 mmHg 84%
    23:00 +1°C° 0.2 mm 4 m/s 734 mmHg 86%

    27 Outubro, Sábado

    Tempo Temperatura Precipitação Vento Pressão Humidade
    00:00 +1°C° 0 mm 4 m/s 735 mmHg 88%
    01:00 0°C° 0 mm 4 m/s 735 mmHg 90%
    02:00 0°C° 0 mm 4 m/s 736 mmHg 91%
    03:00 -1°C° 0 mm 4 m/s 736 mmHg 91%
    04:00 -1°C° 0 mm 4 m/s 737 mmHg 91%
    05:00 -1°C° 0 mm 4 m/s 737 mmHg 91%
    06:00 -1°C° 0 mm 4 m/s 737 mmHg 89%
    07:00 0°C° 0 mm 4 m/s 738 mmHg 87%
    08:00 0°C° 0 mm 5 m/s 738 mmHg 85%
    09:00 +1°C° 0 mm 5 m/s 738 mmHg 79%
    10:00 +3°C° 0 mm 6 m/s 738 mmHg 74%
    11:00 +4°C° 0 mm 6 m/s 738 mmHg 68%
    12:00 +4°C° 0 mm 6 m/s 737 mmHg 68%
    13:00 +5°C° 0 mm 7 m/s 737 mmHg 68%
    14:00 +5°C° 0 mm 7 m/s 736 mmHg 68%
    15:00 +5°C° 0 mm 7 m/s 736 mmHg 70%
    16:00 +5°C° 0 mm 7 m/s 735 mmHg 73%
    17:00 +5°C° 0 mm 8 m/s 735 mmHg 75%
    18:00 +6°C° 0 mm 8 m/s 734 mmHg 74%
    19:00 +6°C° 0 mm 8 m/s 734 mmHg 73%
    20:00 +7°C° 0 mm 8 m/s 734 mmHg 71%
    21:00 +7°C° 0 mm 8 m/s 734 mmHg 73%
    22:00 +8°C° 0 mm 7 m/s 734 mmHg 75%
    23:00 +8°C° 0 mm 7 m/s 734 mmHg 76%

    28 Outubro, Domingo

    Tempo Temperatura Precipitação Vento Pressão Humidade
    00:00 +8°C° 0 mm 6 m/s 734 mmHg 79%
    01:00 +8°C° 0 mm 6 m/s 734 mmHg 82%
    02:00 +7°C° 0 mm 5 m/s 734 mmHg 85%
    03:00 +7°C° 0.1 mm 5 m/s 735 mmHg 86%
    04:00 +7°C° 0.1 mm 5 m/s 735 mmHg 88%
    05:00 +6°C° 0.1 mm 5 m/s 735 mmHg 89%
    06:00 +6°C° 0.1 mm 5 m/s 736 mmHg 87%
    07:00 +6°C° 0.1 mm 5 m/s 737 mmHg 84%
    08:00 +6°C° 0.1 mm 5 m/s 737 mmHg 82%
    09:00 +6°C° 0 mm 4 m/s 738 mmHg 78%
    10:00 +7°C° 0 mm 4 m/s 738 mmHg 75%
    11:00 +7°C° 0 mm 4 m/s 739 mmHg 72%
    12:00 +7°C° 0.1 mm 4 m/s 739 mmHg 72%
    13:00 +8°C° 0.1 mm 3 m/s 740 mmHg 72%
    14:00 +7°C° 0.1 mm 2 m/s 740 mmHg 72%
    15:00 +7°C° 0.2 mm 2 m/s 740 mmHg 75%
    16:00 +8°C° 0.2 mm 1 m/s 741 mmHg 77%
    17:00 +7°C° 0.2 mm 0 m/s 741 mmHg 80%
    18:00 +7°C° 0.3 mm 1 m/s 741 mmHg 81%
    19:00 +7°C° 0.3 mm 1 m/s 742 mmHg 82%
    20:00 +6°C° 0.3 mm 2 m/s 742 mmHg 83%
    21:00 +6°C° 0.5 mm 2 m/s 742 mmHg 84%
    22:00 +5°C° 0.5 mm 3 m/s 742 mmHg 85%
    23:00 +5°C° 0.5 mm 3 m/s 742 mmHg 85%

    29 Outubro, Segunda-feira

    Tempo Temperatura Precipitação Vento Pressão Humidade
    00:00 +5°C° 0.1 mm 3 m/s 742 mmHg 86%
    01:00 +5°C° 0.1 mm 4 m/s 742 mmHg 86%
    02:00 +5°C° 0.1 mm 4 m/s 742 mmHg 87%
    03:00 +5°C° 0 mm 4 m/s 742 mmHg 87%
    04:00 +5°C° 0 mm 5 m/s 742 mmHg 88%
    05:00 +5°C° 0 mm 5 m/s 742 mmHg 89%
    06:00 +5°C° 0 mm 5 m/s 742 mmHg 90%
    07:00 +6°C° 0 mm 5 m/s 742 mmHg 91%
    08:00 +6°C° 0 mm 4 m/s 742 mmHg 92%
    09:00 +7°C° 0 mm 4 m/s 742 mmHg 91%
    10:00 +8°C° 0 mm 4 m/s 742 mmHg 91%
    11:00 +10°C° 0 mm 4 m/s 742 mmHg 91%
    12:00 +10°C° 0 mm 4 m/s 741 mmHg 91%
    13:00 +11°C° 0 mm 4 m/s 741 mmHg 91%
    14:00 +11°C° 0 mm 4 m/s 741 mmHg 91%
    15:00 +11°C° 0 mm 3 m/s 741 mmHg 92%
    16:00 +11°C° 0 mm 3 m/s 741 mmHg 92%
    17:00 +11°C° 0 mm 3 m/s 741 mmHg 93%
    18:00 +11°C° 0 mm 3 m/s 741 mmHg 89%
    19:00 +10°C° 0 mm 4 m/s 741 mmHg 85%
    20:00 +10°C° 0 mm 4 m/s 741 mmHg 82%
    21:00 +10°C° 0 mm 4 m/s 741 mmHg 80%
    22:00 +10°C° 0 mm 4 m/s 741 mmHg 79%
    23:00 +10°C° 0 mm 4 m/s 741 mmHg 77%
    Mostrar mais